sat.trackr.live / text

‹ back to catalog

STARLINK-36442

NORAD 67413 · 2026-005K

PAYLOAD ACTIVE UNKNOWN

§ Identity

Operator
Country
US
Launch date
2026-01-12
Launch site
AFETR
Launch vehicle
Mass (kg)
RCS (m²)

Purposes: comms

External: N2YO · Heavens-Above · Gunter

§ Orbital elements

Epoch: 2026-05-24T18:16:33.091104Z

Period
94.27 min
Inclination
43.0025°
Eccentricity
0.0001060
Mean motion
15.27584768 rev/d
Perigee alt
482.3 km
Apogee alt
483.8 km
Semi-major
6,861.2 km
B*
3.9233e-4
RAAN
168.1131°
Arg perigee
280.1401°
Mean anomaly
79.9331°
Rev number
2,033

§ Raw data

STARLINK-364421 67413U 26005K   26144.76149411  .00010551  00000+0  39233-3 0  99982 67413  43.0025 168.1131 0001060 280.1401  79.9331 15.27584768 20334

JSON: /api/v1/satellites/67413 · /tle

For live sub-satellite position, see the globe view (requires WebGL).

§ Visibility from observer

Set your observer location to see the next 7 days of passes ≥ 10°. The values pass through the URL so the page stays shareable.

No JS? Fill the form by hand. The geolocation button needs JavaScript.